Powrót do katalogu

THORAD AGENA D DEB

AktywnyLEO
NORAD 4326·DEBRIS·🇺🇸 United States

Wystrzelony Sep 30, 1969 z Vandenberg Space Force Base

Loading…

Następne Przeloty (najbliższe 24 godziny)

TLE

ŚwieżeSource: Space-Track

Epoka: Sep 13, 2026, 10:31 UTC

1 04326U 69082DZ  26256.43836213  .00000356  00000-0  15098-3 0  9991
2 04326  70.0531 272.4936 0063925  26.6870 333.7520 14.31877293950080

Śledź THORAD AGENA D DEB w czasie rzeczywistym z AllMySat

Download on the App Store